OPS 4682 DEB, 14047

Orbit data source: Space-Track

OPS 4682 DEB, 14047 is space debris in LEO originally from a launch on Sat, 03 Apr 1965 UTC launched from the Air Force Western Test Range (AFWTR). Debris objects in space refer to the collection of defunct objects orbiting the Earth. Examples of debris include non-operational satellites, rocket bodies, and fragments generated from explosions, collisions, or faulty payload assembly.

Loading next visibility...
Identifier
14047, 1965-027J
Orbit
LEO
Country
Flag of USUS
Related business
Manufacturer
Unknown
Mission
Spacecraft
Bus & Motor
Unknown
Mass
Unknown
Launch date (UTC)
1965-04-03 (61 years ago)
Launch vehicle
Unknown
Launch site
Air Force Western Test Range (AFWTR)
Object type
Payload
Rocket body
Debris
Shape & HBR
Unknown shape, 0.1 m
Radar Cross Section
Medium (>0.1 m² and <1 m²)

Expand to show TLE details & history
Last TLE update: 10 hours ago

TLE from 10 hours ago
0 OPS 4682 DEB
1 14047U 65027J   26150.58742183  .00000587  00000-0  20165-2 0  9994
2 14047  90.2376   2.6019 0033022 152.2032 233.7535 12.96638768831734
Epoch: 2026-05-30T14:05Z
TLE epoch observation values (Epoch: 2026-05-30T14:05:53.246Z)
Latitude
25.67998°
Longitude
-97.08494°
Altitude
1,293.394 km
Speed
7.205 km/s
True Right ascension
00h 09m 57s
True Declination
25° 33' 19"
Sunlit
Object was in daylight at epoch
Visualization orbit readout
Latitude
Unknown
Longitude
Unknown
Altitude
Unknown
Speed
Unknown
Apparent Right ascension
Unknown
Apparent Declination
Unknown
Sunlit
N/A
Visualization observer readout
Local Sidereal Time
09:14:26
Azimuth
Unknown
Elevation
Unknown
Doppler factor
Unknown
Orbital elements
Apogee altitude
1,297.68 km
Perigee altitude
1,247.153 km
Semi-major axis
7,650.554 km
Eccentricity
0.0033
Inclination
90.2376°
RAAN
2.6019°
Arg. of periapsis
152.2032°
True anomaly
233.44907°
Mean anomaly
233.7535°
Eccentric anomaly
233.60121°
Mean motion
3.24343 °/min
Orbital period
110.99 mins
BSTAR
0.0020165
Loading maneuver chart data...
Computing Atmospheric mass density...
Loading historical data...
Loading historical data...
Loading historical data...
Loading historical data...
Loading historical data...
Loading historical data...
Loading historical data...

Documentation

Showing up to 5 results
|